User: anonymous   Login
Location: Bay Ridge
(40.6340°N, 74.0146°W)
Time: 21:57:28
(UTC+00:00)
Language:

Cosmos 923 Rocket - Orbit

View from above orbital plane
View from above orbital plane
View from above satellite
View from above satellite

Ground track
Ground track

The orbit data is extracted from the following two-line orbital elements,

1 10121U 77059B   20027.45661141 -.00000072  00000-0 -15605-4 0  9994
2 10121  74.0453 181.3556 0019839 296.2780  63.6334 14.35927818226826
Epoch (UTC): 27 January 2020 10:57:31
Eccentricity: 0.0019839
inclination: 74.0453°
perigee height: 758 km
apogee height: 786 km
right ascension of ascending node: 181.3556°
argument of perigee: 296.2780°
revolutions per day: 14.35927818
mean anomaly at epoch: 63.6334°
orbit number at epoch: 22682

The dashed part of the orbit path shows where the satellite is in the earth's shadow,  

DLR